Regional Weather Roundup
Issued by NWS

Home | Current Version | Previous Version | Graphics & Text | Print | Product List | Glossary Off
Versions: 1 2 3 4 5 6 7 8 9 10 11 12 13 14 15 16 17 18 19 20 21 22 23 24 25 26 27 28 29 30 31 32 33 34 35 36 37 38 39 40 41 42 43 44 45 46 47 48 49 50

000
ASUS43 KDTX 030610
RWRMI
MICHIGAN HOURLY REGIONAL WEATHER ROUNDUP
NATIONAL WEATHER SERVICE DETROIT/PONTIAC MI
200 AM EDT TUE MAY 03 2016

NOTE: "FAIR" INDICATES FEW OR NO CLOUDS BELOW 12,000 FEET WITH NO
SIGNIFICANT WEATHER AND/OR OBSTRUCTION TO VISIBILITY.

MIZ047>049-052>055-059>063-066>070-074>076-081>083-030700-
SOUTHEAST LOWER MICHIGAN

CITY           SKY/WX    TMP DP  RH WIND       PRES   REMARKS
ADRIAN         CLOUDY    48  46  93 NW3       29.97F
6HR MIN TEMP:  48; 6HR MAX TEMP:  52;

ALMA           CLEAR     37  37 100 W3        29.98S
ANN ARBOR      CLOUDY    47  45  93 CALM      29.95F
BAD AXE        CLEAR     34  31  91 CALM      29.97S
CARO           CLEAR     35  34  96 CALM      29.96F
DETROIT CITY   CLEAR     43  39  86 CALM      29.97F
6HR MIN TEMP:  43; 6HR MAX TEMP:  54;

DETROIT        CLOUDY    49  46  90 CALM      29.97F FOG
6HR MIN TEMP:  49; 6HR MAX TEMP:  53;

FLINT          PTCLDY    39  36  89 S3        29.98S FOG
6HR MIN TEMP:  38; 6HR MAX TEMP:  56;

GROSSE ILE     CLOUDY    48  46  93 CALM      29.95F
HILLSDALE      CLOUDY    47  45  92 CALM      29.97S
6HR MIN TEMP:  47; 6HR MAX TEMP:  50;

HOWELL         CLOUDY    47  44  86 CALM      29.96F

CITY           SKY/WX    TMP DP  RH WIND       PRES   REMARKS
JACKSON        CLOUDY    48  45  89 CALM      29.96F
6HR MIN TEMP:  48; 6HR MAX TEMP:  51;

LAMBERTVILLE   CLOUDY    49  47  92 CALM      29.97S FOG
6HR MIN TEMP:  49; 6HR MAX TEMP:  53;

LANSING        CLOUDY    45  42  89 NW5       29.97F
6HR MIN TEMP:  44; 6HR MAX TEMP:  53;

LAPEER         FAIR      37  36  99 CALM      29.98S
6HR MIN TEMP:  37; 6HR MAX TEMP:  54;

MASON          CLOUDY    47  44  91 W8        29.96F
MONROE         CLOUDY    48  47  98 CALM      29.95F FOG
6HR MIN TEMP:  48; 6HR MAX TEMP:  52;

MT. CLEMENS    CLEAR     41  41  99 NW3       29.96F
6HR MIN TEMP:  40; 6HR MAX TEMP:  53;

PONTIAC        CLEAR     42  38  85 CALM      29.95F
6HR MIN TEMP:  40; 6HR MAX TEMP:  53;

PORT HOPE        N/A     37  33  85 CALM      29.95F
6HR MIN TEMP:  37; 6HR MAX TEMP:  49;

PORT HURON     CLEAR     37  36  93 CALM      29.97F FOG
TRI CITIES     CLEAR     45  29  53 NW5       29.97F
6HR MIN TEMP:  44; 6HR MAX TEMP:  58;

MIDLAND        FAIR      35  33  89 CALM      29.96F
6HR MIN TEMP:  35; 6HR MAX TEMP:  55;

TROY           PTCLDY    44  40  86 CALM      29.98F
SAGINAW HB     CLEAR     36  32  87 S3        29.96F
$$
MIZ043>046-050>051-056>058-064>065-071>073-077>080-030700-
SOUTHWEST LOWER MICHIGAN

CITY           SKY/WX    TMP DP  RH WIND       PRES   REMARKS
BATTLE CREEK   CLOUDY    48  44  86 W5        29.98F
6HR MIN TEMP:  47; 6HR MAX TEMP:  52;

BENTON HARBOR  CLEAR     39  36  89 CALM      29.99S
6HR MIN TEMP:  39; 6HR MAX TEMP:  50;

BIG RAPIDS     CLEAR     40  34  77 CALM      29.97S
6HR MIN TEMP:  40; 6HR MAX TEMP:  57;

COLDWATER      CLOUDY    48  47  98 CALM      29.98S
6HR MIN TEMP:  47; 6HR MAX TEMP:  50;

FREMONT        FAIR      41  40  96 CALM      29.97F
HOLLAND        CLEAR     39  37  92 CALM      29.99F
6HR MIN TEMP:  39; 6HR MAX TEMP:  55;

GRAND RAPIDS   CLEAR     42  38  85 CALM      29.98F
6HR MIN TEMP:  42; 6HR MAX TEMP:  57;

IONIA          FAIR      41  39  94 W3        29.97F
6HR MIN TEMP:  41; 6HR MAX TEMP:  52;

KALAMAZOO      CLOUDY    48  43  82 CALM      29.98F
6HR MIN TEMP:  47; 6HR MAX TEMP:  53;

LUDINGTON      CLEAR     37  33  84 CALM      29.97F
6HR MIN TEMP:  36; 6HR MAX TEMP:  56;

MARSHALL       CLOUDY    47  46  93 CALM      29.97S
6HR MIN TEMP:  47; 6HR MAX TEMP:  51;

MOUNT PLEASANT CLEAR     40  36  86 CALM      29.97F
6HR MIN TEMP:  39; 6HR MAX TEMP:  57;

MUSKEGON       CLEAR     39  36  89 CALM      29.98F
6HR MIN TEMP:  39; 6HR MAX TEMP:  51;

SOUTH HAVEN    CLEAR     38  37  98 CALM      29.99S
$$
MIZ016>042-030700-
NORTHERN LOWER MICHIGAN

CITY           SKY/WX    TMP DP  RH WIND       PRES   REMARKS
ALPENA         CLEAR     37  32  82 CALM      29.95F
6HR MIN TEMP:  36; 6HR MAX TEMP:  60;

BEAVER ISLAND  CLEAR     36  33  87 CALM      29.94F
6HR MIN TEMP:  35; 6HR MAX TEMP:  53;

BELLAIRE       CLEAR     37  34  90 CALM      29.96F
6HR MIN TEMP:  36; 6HR MAX TEMP:  59;

CADILLAC       CLEAR     35  30  83 CALM      29.96F
CHARLEVOIX     CLEAR     39  33  78 CALM      29.98F
FRANKFORT      CLEAR     37  33  87 CALM      29.96F
GAYLORD        CLEAR     41  30  65 CALM      29.94F
6HR MIN TEMP:  40; 6HR MAX TEMP:  59;

GRAYLING       CLEAR     34  30  86 CALM      29.96F
HARBOR SPRINGS CLEAR     38  32  79 CALM      29.95F
HOUGHTON LAKE  CLEAR     36  33  89 CALM      29.96F
6HR MIN TEMP:  36; 6HR MAX TEMP:  57;

MANISTEE       CLEAR     36  28  75 CALM      29.97F
OSCODA         CLEAR     40  29  63 CALM      29.95S
6HR MIN TEMP:  38; 6HR MAX TEMP:  54;

PELLSTON       CLEAR     33  28  81 CALM      29.95F
6HR MIN TEMP:  31; 6HR MAX TEMP:  59;

ROGERS CITY    CLEAR     39  31  73 SW5       29.95F
TRAVERSE CITY  CLEAR     39  33  79 W3        29.95F
6HR MIN TEMP:  38; 6HR MAX TEMP:  52;

$$
MIZ007>008-015-030700-
EASTERN UPPER MICHIGAN

CITY           SKY/WX    TMP DP  RH WIND       PRES   REMARKS
KINROSS          N/A     37  34  87 CALM      29.93F
6HR MIN TEMP:  37; 6HR MAX TEMP:  54;

MACKINAC ISLAN CLEAR     39  32  76 N6        29.94F WCI  35
6HR MIN TEMP:  39; 6HR MAX TEMP:  53;

NEWBERRY       CLEAR     34  32  93 CALM      29.93F
6HR MIN TEMP:  34; 6HR MAX TEMP:  54;

S. S. MARIE    CLEAR     41  28  60 W5        29.92F
6HR MIN TEMP:  39; 6HR MAX TEMP:  51;

MUNISING         N/A     34  30  85 S7        29.92F WCI  28
6HR MIN TEMP:  34; 6HR MAX TEMP:  47;

$$
MIZ004>006-011>014-085-030700-
CENTRAL UPPER MICHIGAN

CITY           SKY/WX    TMP DP  RH WIND       PRES   REMARKS
MANISTIQUE     CLEAR     36  33  88 CALM      29.93F
6HR MIN TEMP:  34; 6HR MAX TEMP:  52;

ESCANABA       CLEAR     36  34  93 CALM      29.94F
6HR MIN TEMP:  36; 6HR MAX TEMP:  55;

MENOMINEE      CLEAR     41  34  75 SW3       29.95F
6HR MIN TEMP:  39; 6HR MAX TEMP:  57;

SAWYER-GWINN   CLEAR     35  30  84 CALM      29.91F
6HR MIN TEMP:  33; 6HR MAX TEMP:  53;

$$
MIZ001>003-009>011-084-030700-
WESTERN UPPER MICHIGAN

CITY           SKY/WX    TMP DP  RH WIND       PRES   REMARKS
IRON MOUNTAIN  CLEAR     38  31  76 CALM      29.91F
6HR MIN TEMP:  38; 6HR MAX TEMP:  60;

HOUGHTON       CLOUDY    45  31  58 SW6       29.90F
6HR MIN TEMP:  37; 6HR MAX TEMP:  57;

COPPER HARBOR    N/A     44  33  65 SW5       29.90F
6HR MIN TEMP:  42; 6HR MAX TEMP:  53;

IRONWOOD         N/A     37  34  87 CALM      29.90F
6HR MIN TEMP:  36; 6HR MAX TEMP:  57;

$$

ABBREVIATIONS USED IN REMARKS
   TC - TEMPERATURE IN CELSIUS
  WCI - WIND CHILL INDEX
   HX - HEAT INDEX
  VSB - VISIBILITY





USA.gov is the U.S. government's official web portal to all federal, state and local government web resources and services.